Flag for American Samoa Weather past 2 weeks in Pago Pago, American Samoa

Now
79 °F

Rain showers. Cloudy.


Feels Like: 82 °F
Forecast: 80 / 85 °F
Wind: 21 mph from East

Location: Pago Pago / Int. Airp.

Current Time: Dec 18, 2014 at 11:36:35 AM

Latest Report: Dec 18, 2014 at 10:50 AM


Visibility: 4 mi

Pressure: 29.78 "Hg

Humidity: 93%

Dew point: 76 °F

Location of Pago PagoLocation

Historic Weather in Pago Pago — Graph

°F

Pago Pago temperature yesterday

Maximum temperature yesterday: 87 °F (at 11:50 AM)
Minimum temperature yesterday: 77 °F (at 5:50 AM)
Average temperature yesterday: 83 °F

Past Weeks' High & Low Weather Summary

 TemperatureHumidityPressure
High87 °F (Dec 15, 12:50 PM)95% (Dec 5, 3:50 AM)29.91 "Hg (Dec 5, 3:50 AM)
Low76 °F (Dec 12, 4:52 AM)67% (Dec 15, 9:50 AM)29.70 "Hg (Dec 15, 3:52 PM)
Average82 °F82%29.82 "Hg
* Reported Dec 3 9:53 AM — Dec 18 9:52 AM, Pago Pago, Weather by CustomWeather, © 2014

Note: Actual official high and low records may vary slightly from our data, if they occured in-between our weather recording intervals... More about our weather records

Advertising

Pago Pago weather history for previous 24 hours

 ConditionsComfort  
Time TempWeatherWind HumidityBarometerVisibility
9:52 AM
Dec 18
80 °FRain showers. Cloudy.20 mph93%29.79 "Hg2 mi
8:50 AM79 °FSprinkles. Cloudy.21 mph92%29.81 "Hg11 mi
7:50 AM80 °FSprinkles. Cloudy.26 mph91%29.80 "Hg11 mi
6:52 AM82 °FBroken clouds.18 mph84%29.78 "Hg11 mi
5:57 AM81 °FCloudy.17 mph88%29.77 "Hg12 mi
4:50 AM80 °FPartly cloudy.15 mph89%29.75 "Hg10 mi
2:52 AM82 °FPassing clouds.16 mph85%29.76 "Hg12 mi
1:50 AM81 °FPassing clouds.13 mph88%29.77 "Hg12 mi
12:50 AM83 °FPassing clouds.17 mph83%29.81 "Hg12 mi
10:51 PM
Dec 17
82 °FPartly cloudy.14 mph83%29.85 "Hg12 mi
9:53 PM82 °FOvercast.14 mph84%29.85 "Hg12 mi
8:51 PM83 °FOvercast.15 mph82%29.84 "Hg12 mi
7:52 PM82 °FOvercast.16 mph84%29.84 "Hg12 mi
6:50 PM83 °FOvercast.13 mph81%29.83 "Hg12 mi
5:55 PM84 °FCloudy.13 mph79%29.82 "Hg12 mi
4:56 PM85 °FBroken clouds.12 mph76%29.80 "Hg12 mi
3:50 PM85 °FBroken clouds.12 mph77%29.80 "Hg12 mi
2:52 PM86 °FBroken clouds.10 mph76%29.82 "Hg12 mi
1:50 PM86 °FBroken clouds.10 mph74%29.83 "Hg12 mi
12:50 PM87 °FBroken clouds.12 mph72%29.85 "Hg12 mi
11:50 AM87 °FBroken clouds.12 mph73%29.88 "Hg12 mi
Weather by CustomWeather, © 2014

See weather overviewHow to use our weather pages